TimeEDT,TemperatureF,Dew PointF,Humidity,Sea Level PressureIn,VisibilityMPH,Wind Direction,Wind SpeedMPH,Gust SpeedMPH,PrecipitationIn,Events,Conditions,WindDirDegrees,DateUTC
12:15 AM,59.0,59.0,100,30.00,10.0,Calm,Calm,-,N/A,Rain,Light Rain,0,2013-05-11 04:15:00
12:55 AM,60.8,57.2,88,30.00,10.0,Calm,Calm,-,N/A,,Unknown,0,2013-05-11 04:55:00
1:15 AM,60.8,57.2,88,29.99,10.0,Calm,Calm,-,N/A,,Unknown,0,2013-05-11 05:15:00
1:35 AM,60.8,57.2,88,29.98,10.0,Calm,Calm,-,N/A,,Unknown,0,2013-05-11 05:35:00
1:55 AM,59.0,57.2,94,29.97,10.0,Calm,Calm,-,N/A,,Unknown,0,2013-05-11 05:55:00
2:15 AM,59.0,57.2,94,29.98,10.0,Calm,Calm,-,N/A,,Unknown,0,2013-05-11 06:15:00
2:35 AM,59.0,59.0,100,29.97,8.0,Calm,Calm,-,N/A,,Unknown,0,2013-05-11 06:35:00
2:55 AM,59.0,59.0,100,29.97,3.0,Calm,Calm,-,N/A,Rain,Light Rain,0,2013-05-11 06:55:00
3:15 AM,59.0,59.0,100,29.97,10.0,Calm,Calm,-,N/A,,Unknown,0,2013-05-11 07:15:00
3:35 AM,59.0,59.0,100,29.97,3.0,Calm,Calm,-,0.01,Rain,Light Rain,0,2013-05-11 07:35:00
3:55 AM,59.0,59.0,100,29.96,4.0,Calm,Calm,-,0.03,Rain,Light Rain,0,2013-05-11 07:55:00
4:15 AM,59.0,59.0,100,29.96,5.0,Calm,Calm,-,N/A,Rain,Light Rain,0,2013-05-11 08:15:00
4:35 AM,59.0,59.0,100,29.96,3.0,Calm,Calm,-,0.01,Rain,Light Rain,0,2013-05-11 08:35:00
4:55 AM,59.0,59.0,100,29.95,5.0,Calm,Calm,-,0.01,Rain,Light Rain,0,2013-05-11 08:55:00
5:15 AM,59.0,59.0,100,29.95,5.0,Calm,Calm,-,N/A,Rain,Light Rain,0,2013-05-11 09:15:00
5:35 AM,59.0,59.0,100,29.95,3.0,Calm,Calm,-,N/A,,Mist,0,2013-05-11 09:35:00
5:55 AM,59.0,59.0,100,29.95,1.8,Calm,Calm,-,0.03,Rain,Rain,0,2013-05-11 09:55:00
6:15 AM,59.0,59.0,100,29.95,2.0,Calm,Calm,-,0.01,Rain,Light Rain,0,2013-05-11 10:15:00
6:35 AM,59.0,59.0,100,29.95,3.0,Calm,Calm,-,0.02,Rain,Light Rain,0,2013-05-11 10:35:00
6:55 AM,59.0,59.0,100,29.95,5.0,SW,5.8,-,0.03,,Mostly Cloudy,230,2013-05-11 10:55:00
7:15 AM,59.0,59.0,100,29.95,4.0,Calm,Calm,-,N/A,,Overcast,0,2013-05-11 11:15:00
7:35 AM,59.0,59.0,100,29.95,4.0,Calm,Calm,-,N/A,,Overcast,0,2013-05-11 11:35:00
7:55 AM,59.0,59.0,100,29.95,5.0,Calm,Calm,-,N/A,,Mostly Cloudy,0,2013-05-11 11:55:00
8:15 AM,59.0,59.0,100,29.95,5.0,Calm,Calm,-,N/A,,Mostly Cloudy,0,2013-05-11 12:15:00
8:35 AM,59.0,59.0,100,29.96,7.0,WSW,5.8,-,N/A,,Overcast,250,2013-05-11 12:35:00
8:55 AM,59.0,59.0,100,29.96,7.0,Calm,Calm,-,N/A,,Overcast,0,2013-05-11 12:55:00
9:15 AM,60.8,59.0,94,29.96,9.0,Calm,Calm,-,N/A,,Overcast,0,2013-05-11 13:15:00
9:35 AM,62.6,60.8,94,29.96,10.0,Calm,Calm,-,N/A,,Overcast,0,2013-05-11 13:35:00
9:55 AM,62.6,60.8,94,29.96,10.0,Calm,Calm,-,N/A,,Mostly Cloudy,0,2013-05-11 13:55:00
10:15 AM,62.6,60.8,94,29.96,10.0,WSW,6.9,-,N/A,,Mostly Cloudy,240,2013-05-11 14:15:00
10:35 AM,64.4,60.8,88,29.96,10.0,Calm,Calm,-,N/A,,Mostly Cloudy,0,2013-05-11 14:35:00
10:55 AM,64.4,59.0,83,29.96,10.0,SW,3.5,-,N/A,,Overcast,230,2013-05-11 14:55:00
11:15 AM,64.4,59.0,83,29.96,10.0,WSW,9.2,-,N/A,,Overcast,240,2013-05-11 15:15:00
11:35 AM,66.2,59.0,78,29.95,10.0,WSW,6.9,-,N/A,,Mostly Cloudy,240,2013-05-11 15:35:00
11:55 AM,68.0,59.0,73,29.95,10.0,WSW,4.6,-,N/A,,Mostly Cloudy,240,2013-05-11 15:55:00
12:15 PM,68.0,59.0,73,29.95,10.0,WSW,6.9,-,N/A,,Mostly Cloudy,240,2013-05-11 16:15:00
12:35 PM,66.2,60.8,83,29.95,7.0,SW,8.1,-,N/A,Rain,Light Rain,230,2013-05-11 16:35:00
12:55 PM,66.2,60.8,83,29.94,10.0,Calm,Calm,-,0.01,,Scattered Clouds,0,2013-05-11 16:55:00
1:15 PM,68.0,60.8,78,29.92,10.0,Calm,Calm,-,N/A,,Partly Cloudy,0,2013-05-11 17:15:00
1:35 PM,68.0,59.0,73,29.93,10.0,NW,3.5,-,N/A,,Mostly Cloudy,320,2013-05-11 17:35:00
1:55 PM,64.4,62.6,94,29.93,10.0,Calm,Calm,-,N/A,,Overcast,0,2013-05-11 17:55:00
2:15 PM,64.4,60.8,88,29.93,1.8,WNW,4.6,-,0.06,Rain,Rain,290,2013-05-11 18:15:00
2:35 PM,62.6,59.0,88,29.92,1.5,Calm,Calm,-,0.18,Rain,Light Rain,0,2013-05-11 18:35:00
2:55 PM,64.4,60.8,88,29.92,5.0,Calm,Calm,-,0.21,Rain,Light Rain,0,2013-05-11 18:55:00
3:15 PM,68.0,62.6,83,29.92,10.0,SSW,4.6,-,N/A,,Partly Cloudy,210,2013-05-11 19:15:00
3:35 PM,68.0,60.8,78,29.91,10.0,WSW,6.9,-,N/A,,Partly Cloudy,250,2013-05-11 19:35:00
3:55 PM,68.0,60.8,78,29.90,10.0,Calm,Calm,-,N/A,,Mostly Cloudy,0,2013-05-11 19:55:00
4:15 PM,66.2,59.0,78,29.90,9.0,West,5.8,-,N/A,Rain,Light Rain,280,2013-05-11 20:15:00
4:35 PM,68.0,59.0,73,29.91,10.0,Calm,Calm,-,N/A,,Partly Cloudy,0,2013-05-11 20:35:00
4:55 PM,69.8,57.2,64,29.90,10.0,WNW,8.1,16.1,N/A,,Clear,290,2013-05-11 20:55:00
5:15 PM,68.0,57.2,68,29.90,10.0,WNW,9.2,-,N/A,,Partly Cloudy,300,2013-05-11 21:15:00
5:35 PM,68.0,57.2,68,29.90,10.0,WNW,9.2,20.7,N/A,,Partly Cloudy,290,2013-05-11 21:35:00
5:55 PM,68.0,57.2,68,29.91,10.0,West,11.5,17.3,N/A,,Partly Cloudy,280,2013-05-11 21:55:00
6:15 PM,68.0,55.4,64,29.91,10.0,WNW,13.8,21.9,N/A,,Partly Cloudy,300,2013-05-11 22:15:00
6:35 PM,66.2,55.4,68,29.91,10.0,WNW,8.1,-,N/A,,Partly Cloudy,290,2013-05-11 22:35:00
6:55 PM,66.2,55.4,68,29.92,10.0,WNW,6.9,16.1,N/A,,Scattered Clouds,300,2013-05-11 22:55:00
7:15 PM,64.4,53.6,68,29.92,10.0,NW,9.2,18.4,N/A,,Mostly Cloudy,310,2013-05-11 23:15:00
7:35 PM,62.6,53.6,72,29.93,10.0,West,6.9,-,N/A,,Scattered Clouds,270,2013-05-11 23:35:00
7:55 PM,62.6,51.8,68,29.94,10.0,West,5.8,-,N/A,,Clear,280,2013-05-11 23:55:00
8:15 PM,60.8,51.8,72,29.95,10.0,West,3.5,-,N/A,,Clear,260,2013-05-12 00:15:00
8:35 PM,60.8,51.8,72,29.95,10.0,Calm,Calm,-,N/A,,Mostly Cloudy,0,2013-05-12 00:35:00
8:55 PM,59.0,51.8,77,29.96,10.0,West,6.9,-,N/A,,Overcast,280,2013-05-12 00:55:00
9:15 PM,59.0,50.0,72,29.96,10.0,WNW,5.8,-,N/A,,Overcast,290,2013-05-12 01:15:00
9:35 PM,59.0,51.8,77,29.97,10.0,Calm,Calm,-,N/A,,Overcast,0,2013-05-12 01:35:00
9:55 PM,59.0,50.0,72,29.98,10.0,Calm,Calm,-,N/A,,Mostly Cloudy,0,2013-05-12 01:55:00
10:15 PM,57.2,50.0,77,29.99,10.0,Calm,Calm,-,N/A,,Mostly Cloudy,0,2013-05-12 02:15:00
10:35 PM,57.2,50.0,77,29.99,10.0,Calm,Calm,-,N/A,,Unknown,0,2013-05-12 02:35:00
10:55 PM,55.4,48.2,77,30.00,10.0,Calm,Calm,-,N/A,,Unknown,0,2013-05-12 02:55:00
11:15 PM,53.6,48.2,82,30.00,10.0,Calm,Calm,-,N/A,,Unknown,0,2013-05-12 03:15:00
11:35 PM,53.6,48.2,82,30.01,10.0,Calm,Calm,-,N/A,,Unknown,0,2013-05-12 03:35:00
11:55 PM,53.6,48.2,82,30.01,10.0,Calm,Calm,-,N/A,,Unknown,0,2013-05-12 03:55:00